Regional Weather Roundup
Issued by NWS Charleston, SC

Current Version | Previous Version | Graphics & Text | Print | Product List | Glossary On
Versions: 1 2 3 4 5 6 7 8 9 10 11 12 13 14 15 16 17 18 19 20 21 22 23 24 25 26 27 28 29 30 31 32 33 34 35 36 37 38 39 40 41 42 43 44 45 46 47 48 49 50
000
ASUS42 KCHS 242225
RWRCHS

REGIONAL WEATHER ROUNDUP
NATIONAL WEATHER SERVICE CHARLESTON SC
500 PM EST WED DEC 24 2014

NOTE: "FAIR" INDICATES FEW OR NO CLOUDS BELOW 12,000 FEET WITH NO
SIGNIFICANT WEATHER AND/OR OBSTRUCTIONS TO VISIBILITY.

NOT ALL STATIONS ARE QUALITY CONTROLLED BY THE NATIONAL
WEATHER SERVICE. USE DATA WITH CAUTION...ESPECIALLY
DEWPOINT OBSERVATIONS.

SCZ027-030-031-034>040-042>050-242300-
...SOUTHEAST SOUTH CAROLINA...

CITY           SKY/WX    TMP DP  RH WIND       PRES   REMARKS
N CHARLESTON   LGT RAIN  66  65  96 S8        29.80F
WATERFRONT PRK   N/A     68 N/A N/A SW9         N/A
MOUNT PLEASANT LGT RAIN  70  68  94 SW6       29.80R
PINOPOLIS      NOT AVBL
MONCKS CORNER  LGT RAIN  68  64  88 S3        29.77F
SUMMERVILLE    RAIN      66  66 100 S5        29.78F
BEAUFORT MCAS  LGT RAIN  65  64  97 S9        29.75F FOG
BEAUFORT ARPT  LGT RAIN  64  64 100 SE7       29.76F
HILTON HEAD IS HVY RAIN  66  66 100 S5        29.79F VSB 1
WALTERBORO     LGT RAIN  66 N/A N/A SE12      29.72F
ALLENDALE      CLOUDY    66  66 100 S7        29.72R

...SOUTHERN MIDLANDS AND PEE DEE...

CITY           SKY/WX    TMP DP  RH WIND       PRES   REMARKS
GEORGETOWN     NOT AVBL
KINGSTREE      NOT AVBL
ORANGEBURG     LGT RAIN  66  63  90 S13       29.71S
BARNWELL         N/A     66  66 100 SW7       29.73R
AIKEN          CLOUDY    64  64 100 S9        29.72S
MANNING        CLOUDY    66 N/A N/A S6        29.74S
COLUMBIA       CLOUDY    67  64  90 S13       29.68F
SUMTER         LGT RAIN  64  64 100 S9        29.68F
FLORENCE       LGT RAIN  67  63  87 S10       29.73S
MYRTLE BEACH   MOCLDY    70  64  83 S9        29.80F
N MYRTLE BEACH CLOUDY    63  61  93 S5        29.78F

$$

GAZ063-065-086>088-099>101-113>116-118-119-134>141-150-242300-
...SOUTHEAST GEORGIA...

CITY           SKY/WX    TMP DP  RH WIND       PRES   REMARKS
SAVANNAH ARPT  CLOUDY    66  63  90 S13       29.75F
HUNTER AAF     CLOUDY    64  64 100 S10       29.74R
FORT STEWART   CLOUDY    66  64  94 W5        29.76R
STATESBORO     LGT RAIN  66  66 100 SW6       29.74R
SYLVANIA       LGT RAIN  67  67 100 SW5       29.75R
CLAXTON        LGT RAIN  66  66 100 S6        29.75R

...CSRA...CENTRAL AND FAR SOUTHEAST GEORGIA...

CITY           SKY/WX    TMP DP  RH WIND       PRES   REMARKS
THOMSON        CLOUDY    68  68  98 S3        29.71R
AUGUSTA-BUSH   CLOUDY    66  65  96 S5        29.68S
AUGUSTA-DANIEL CLOUDY    67  65  93 S9        29.69R
SWAINSBORO     CLOUDY   N/A N/A N/A S7        29.73R
VIDALIA        CLOUDY    68  66  94 S8        29.74S
EASTMAN        FAIR      69  69  99 SW8       29.74S
HAZLEHURST     CLOUDY    69  68  98 SW3       29.73S
ALMA           CLOUDY    68  65  90 SW10      29.75R
WAYCROSS       DRIZZLE   72  70  94 SW9       29.77R
JESUP          CLOUDY    70  68  94 CALM      29.76R
BAXLEY         CLOUDY    68  66  94 SW3       29.75R
BRUNSWICK      CLOUDY    68  64  88 S10       29.79R
SAINT SIMONS   CLOUDY    66  64  93 S6        29.76F

$$

SCZ027-028-034-036>038-045-046-048>050-GAZ119-141-242300-
...LAKE AND SUPPLEMENTAL COASTAL OBSERVATIONS...

STATION/POSITION TIME  TEMP    WIND        PRES    WAVE   SWELL
                       AIR SEA DIR/SP/G            HT/PER HT/PER/DIR
                 (UTC) (F)     (DEG/KT/KT) (MB)    (FT/S) (FT/S/D)
UPR LAKE MARION  NOT AVBL
WINYAH BAY       2200   67     190/  3     1008.0S
LAKE MURRAY      2100   60     180/  5/  6 1004.7F
ACE BASIN NERRS  2200   64        CALM     1009.0R
FORT PULASKI     2200   64 56  150/  9/ 13 1007.9F
SAPELO ISLAND    2200   66     140/  9     1007.0S

$$

ANZ835-935-AMZ111-154-330-350-352-354-370-450-454-472-242300-
...C-MAN AND BUOY OBSERVATIONS...

STATION/POSITION TIME  TEMP    WIND        PRES    WAVE   SWELL
                       AIR SEA DIR/SP/G            HT/PER HT/PER/DIR
                 (UTC) (F)     (DEG/KT/KT) (MB)    (FT/S) (FT/S/D)
BUOY 41004       2200   76 73  200/ 17/ 21 1008.2R   9/ 8   5/ 8
BUOY 41008       2200   63 59  190/  8/ 10 1008.8R   5/ 7   5/130/ 7
FOLLY BEACH CMAN 2200   65     230/ 11/ 16 1009.7R
CAPERS NEARSHORE 2100   63     240/ 10/ 12   N/A
FRIPP NEARSHORE  NOT AVBL


STATION/POSITION TIME  TEMP    WIND        PRES    WAVE   SWELL
                       AIR SEA DIR/SP/G            HT/PER HT/PER/DIR
                 (UTC) (F)     (DEG/KT/KT) (MB)    (FT/S) (FT/S/D)
5E ST. MARYS GA  2200      61                N/A     4/ 6
FRYING PAN BUOY  2200   74 71  210/ 17/ 21 1009.8R  10/ 8
BUOY 41025       2200   76                 1009.3F   8/ 7
CAPE LOOKOUT NC  2200   65     190/ 14/ 16 1009.3R
BUOY 41002       2113   74 72  200/ 16/ 17 1014.9F   6/ 6   2/ 80/10
BUOY 41010       2200   77 77  190/ 19/ 21 1012.9F   5/ 6   3/230/ 7
ST AUGUSTINE FL  2200   74     200/  8/  9 1009.2R


$$


USA.gov is the U.S. government's official web portal to all federal, state and local government web resources and services.